FW1692 Weather Reports


Display with metric or nautical units.
time (UTC)temp
F
wind
direction
speed
MPH
gust
MPH
rain 1hr
in
rain 24hr
in
rain mn
in
humidity
%
barometer
mb
20260505183432 53 17 2.0 7.0 0.00 0.00 0.00 76 1017.1
20260505182932 53 357 2.0 5.0 0.00 0.00 0.00 76 1017.2
20260505182431 53 327 3.0 5.0 0.00 0.00 0.00 76 1017.1
20260505181932 53 94 2.0 7.0 0.00 0.00 0.00 76 1017.1
20260505181432 53 0 3.0 7.0 0.00 0.00 0.00 75 1017.1
20260505180932 53 0 2.0 5.0 0.00 0.00 0.00 75 1017.2
20260505180430 53 345 2.0 3.0 0.00 0.00 0.00 75 1017.1
20260505175932 53 347 2.0 4.0 0.00 0.00 0.00 76 1017.1
20260505175431 53 340 2.0 5.0 0.00 0.00 0.00 75 1017.1
20260505175150 53 330 2.0 5.0 0.00 0.00 0.00 75 1017.1
20260505174430 54 321 2.0 6.0 0.00 0.00 0.00 75 1017.0
20260505173931 54 337 2.0 7.0 0.00 0.00 0.00 74 1017.0
20260505173654 54 309 4.0 7.0 0.00 0.00 0.00 72 1017.0
20260505172930 54 303 2.0 10.0 0.00 0.00 0.00 71 1017.0
20260505172430 54 347 3.0 10.0 0.00 0.00 0.00 71 1017.1
20260505171931 55 271 4.0 6.0 0.00 0.00 0.00 70 1017.0
20260505171647 55 326 4.0 6.0 0.00 0.00 0.00 70 1017.0
20260505170928 55 295 2.0 6.0 0.00 0.00 0.00 70 1017.0
20260505170428 55 254 2.0 6.0 0.00 0.00 0.00 71 1017.0
20260505165929 55 283 2.0 6.0 0.00 0.00 0.00 71 1017.0
20260505165650 55 279 3.0 7.0 0.00 0.00 0.00 70 1017.0
20260505165646 55 269 4.0 7.0 0.00 0.00 0.00 70 1017.1
20260505164647 55 278 4.0 6.0 0.00 0.00 0.00 70 1017.1
20260505163927 55 228 3.0 6.0 0.00 0.00 0.00 70 1017.0
20260505163427 55 282 4.0 5.0 0.00 0.00 0.00 70 1017.1
20260505162927 56 286 1.0 6.0 0.00 0.00 0.00 70 1017.1
20260505162427 56 289 3.0 7.0 0.00 0.00 0.00 68 1017.0
20260505161927 56 255 4.0 7.0 0.00 0.00 0.00 68 1017.0
20260505161647 56 244 4.0 6.0 0.00 0.00 0.00 66 1016.9
20260505160925 57 262 1.0 4.0 0.00 0.00 0.00 64 1016.9
20260505160427 57 262 2.0 5.0 0.00 0.00 0.00 64 1017.0
20260505152925 56 213 2.0 5.0 0.00 0.00 0.00 67 1017.1
20260505152425 57 261 4.0 6.0 0.00 0.00 0.00 68 1017.1
20260505151926 56 259 2.0 6.0 0.00 0.00 0.00 68 1017.0
20260505151425 56 240 3.0 9.0 0.00 0.00 0.00 68 1017.0
20260505150925 56 190 4.0 9.0 0.00 0.00 0.00 69 1017.0
20260505150426 56 271 4.0 9.0 0.00 0.00 0.00 70 1017.1
20260505140423 55 258 2.0 5.0 0.00 0.00 0.00 70 1017.3
20260505124922 55 295 4.0 11.0 0.00 0.00 0.00 72 1017.4
20260505124423 55 180 3.0 10.0 0.00 0.00 0.00 72 1017.4
20260505123923 55 323 4.0 10.0 0.00 0.00 0.00 71 1017.5
20260505123422 55 271 3.0 10.0 0.00 0.00 0.00 71 1017.5
20260505122922 55 268 4.0 7.0 0.00 0.00 0.00 72 1017.4
20260505122422 55 251 3.0 9.0 0.00 0.00 0.00 70 1017.4
20260505122407 55 290 3.0 9.0 0.00 0.00 0.00 71 1017.4
20260505121422 55 329 4.0 7.0 0.00 0.00 0.00 72 1017.4
20260505120922 55 255 4.0 7.0 0.00 0.00 0.00 72 1017.5
20260505120422 55 266 4.0 7.0 0.00 0.00 0.00 71 1017.5
20260505115922 55 334 4.0 9.0 0.00 0.00 0.00 71 1017.5
20260505115421 54 272 5.0 9.0 0.00 0.00 0.00 73 1017.5
20260505114921 53 266 2.0 6.0 0.00 0.00 0.00 72 1017.5
20260505114421 53 334 3.0 7.0 0.00 0.00 0.00 72 1017.6
20260505113921 53 298 2.0 7.0 0.00 0.00 0.00 72 1017.6
20260505113421 53 248 4.0 7.0 0.00 0.00 0.00 72 1017.6
20260505112921 53 326 3.0 7.0 0.00 0.00 0.00 72 1017.7
20260505112419 53 323 2.0 7.0 0.00 0.00 0.00 72 1017.7
20260505111921 53 283 2.0 7.0 0.00 0.00 0.00 73 1017.8
20260505111421 53 295 3.0 5.0 0.00 0.00 0.00 73 1017.7
20260505111151 53 11 3.0 7.0 0.00 0.00 0.00 74 1017.6
20260505110642 53 293 4.0 7.0 0.00 0.00 0.00 74 1017.6
20260505102150 53 302 5.0 11.0 0.00 0.00 0.00 71 1017.9
20260505101905 53 333 4.0 9.0 0.00 0.00 0.00 71 1017.8
20260505100919 53 310 4.0 9.0 0.00 0.00 0.00 71 1017.8
20260505100417 54 4 5.0 9.0 0.00 0.00 0.00 70 1017.7
20260505100140 54 306 2.0 10.0 0.00 0.00 0.00 69 1017.7
20260505095419 55 305 3.0 10.0 0.00 0.00 0.00 69 1017.7
20260505094919 54 313 2.0 7.0 0.00 0.00 0.00 71 1017.6
20260505094419 53 295 3.0 7.0 0.00 0.00 0.00 72 1017.7
20260505093920 53 292 4.0 7.0 0.00 0.00 0.00 74 1017.8
20260505093418 53 299 2.0 7.0 0.00 0.00 0.00 74 1017.7
20260505092919 52 305 3.0 7.0 0.00 0.00 0.00 76 1017.8
20260505092418 52 0 4.0 9.0 0.00 0.00 0.00 76 1017.8
20260505091919 51 341 3.0 9.0 0.00 0.00 0.00 76 1017.8
20260505091417 51 300 4.0 6.0 0.00 0.00 0.00 78 1017.8
20260505090918 51 288 2.0 6.0 0.00 0.00 0.00 79 1017.8
20260505090417 51 319 3.0 9.0 0.00 0.00 0.00 80 1017.8
20260505085918 51 0 2.0 9.0 0.00 0.00 0.00 80 1017.9
20260505085417 51 6 2.0 5.0 0.00 0.00 0.00 80 1017.9
20260505084918 51 292 3.0 5.0 0.00 0.00 0.00 81 1017.9
20260505084416 51 0 3.0 5.0 0.00 0.00 0.00 83 1017.8
20260505083919 51 321 1.0 4.0 0.00 0.00 0.00 84 1017.9
20260505083638 51 306 2.0 4.0 0.00 0.00 0.00 86 1017.9
20260505082917 51 289 1.0 4.0 0.00 0.00 0.00 86 1017.9
20260505082417 51 289 2.0 5.0 0.00 0.00 0.00 87 1018.0
20260505081918 51 299 3.0 7.0 0.00 0.00 0.00 87 1018.0
20260505081417 50 248 3.0 7.0 0.00 0.00 0.00 89 1017.9
20260505080917 50 324 2.0 5.0 0.00 0.00 0.00 89 1018.0
20260505080416 50 319 3.0 5.0 0.00 0.00 0.00 91 1018.0
20260505075917 49 288 2.0 4.0 0.00 0.00 0.00 91 1017.9
20260505075416 49 283 0.0 4.0 0.00 0.00 0.00 92 1017.9
20260505074917 49 305 1.0 3.0 0.00 0.00 0.00 93 1017.9
20260505074415 49 351 0.0 2.0 0.00 0.00 0.00 93 1017.8
20260505073917 48 351 0.0 4.0 0.00 0.00 0.00 94 1017.8
20260505073416 48 0 1.0 4.0 0.00 0.00 0.00 94 1017.8
20260505073139 48 275 2.0 3.0 0.00 0.00 0.00 94 1017.8
20260505072414 48 314 0.0 3.0 0.00 0.00 0.00 95 1017.9
20260505071916 47 317 1.0 3.0 0.00 0.00 0.00 95 1017.9
20260505071415 47 0 1.0 5.0 0.00 0.00 0.00 95 1017.9
20260505070916 47 4 2.0 5.0 0.00 0.00 0.00 95 1017.9
20260505070415 47 340 2.0 4.0 0.00 0.00 0.00 95 1017.8
20260505065915 47 355 0.0 1.0 0.00 0.00 0.00 95 1017.8
20260505065414 47 355 0.0 2.0 0.00 0.00 0.00 95 1017.8
20260505064916 47 355 1.0 2.0 0.00 0.00 0.00 95 1017.8
20260505064414 46 355 1.0 3.0 0.00 0.00 0.00 95 1018.0
20260505063913 46 351 2.0 4.0 0.00 0.00 0.00 95 1018.1
20260505063858 46 351 1.0 4.0 0.00 0.00 0.00 95 1018.0
20260505062915 46 358 1.0 3.0 0.00 0.00 0.00 96 1018.0
20260505062644 45 358 0.0 5.0 0.00 0.00 0.00 96 1018.0
20260505061915 44 0 3.0 5.0 0.00 0.00 0.00 96 1018.1
20260505061414 44 255 0.0 0.0 0.00 0.00 0.00 95 1018.1
20260505060914 43 255 0.0 0.0 0.00 0.00 0.00 95 1018.0
20260505060413 42 255 0.0 2.0 0.00 0.00 0.00 95 1018.1
20260505055914 42 255 0.0 2.0 0.00 0.00 0.00 95 1018.0
20260505055413 41 255 0.0 2.0 0.00 0.00 0.00 95 1018.0
20260505054914 41 255 0.0 2.0 0.00 0.00 0.00 95 1018.0
20260505054412 41 255 0.0 2.0 0.00 0.00 0.00 94 1018.0
20260505053914 40 255 0.0 3.0 0.00 0.00 0.00 95 1018.0
20260505053413 40 255 0.0 3.0 0.00 0.00 0.00 95 1017.9
20260505052913 39 295 1.0 2.0 0.00 0.00 0.00 94 1017.9
20260505052410 39 295 0.0 0.0 0.00 0.00 0.00 94 1017.8
20260505051913 39 295 0.0 0.0 0.00 0.00 0.00 94 1017.7
20260505051412 39 295 0.0 0.0 0.00 0.00 0.00 94 1017.8
20260505051137 38 295 0.0 0.0 0.00 0.00 0.00 94 1017.8
20260505050412 38 295 0.0 0.0 0.00 0.00 0.00 94 1017.7
20260505041410 39 295 0.0 0.0 0.00 0.00 0.00 93 1017.5
20260505040911 39 295 0.0 0.0 0.00 0.00 0.00 93 1017.5
20260505040410 39 295 0.0 0.0 0.00 0.00 0.00 93 1017.4
20260505035909 39 295 0.0 0.0 0.00 0.00 0.00 93 1017.4
20260505035410 39 295 0.0 0.0 0.00 0.00 0.00 93 1017.4
20260505034910 39 295 0.0 0.0 0.00 0.00 0.00 93 1017.4
20260505034637 40 295 0.0 0.0 0.00 0.00 0.00 93 1017.4
20260505034131 40 295 0.0 0.0 0.00 0.00 0.00 93 1017.5
20260505033409 40 295 0.0 0.0 0.00 0.00 0.00 93 1017.5
20260505033130 40 295 0.0 0.0 0.00 0.00 0.00 93 1017.5
20260505032409 40 295 0.0 0.0 0.00 0.00 0.00 93 1017.5
20260505031909 40 295 0.0 0.0 0.00 0.00 0.00 93 1017.5
20260505031409 40 295 0.0 0.0 0.00 0.00 0.00 93 1017.5
20260505030908 40 295 0.0 0.0 0.00 0.00 0.00 93 1017.5
20260505030630 40 295 0.0 0.0 0.00 0.00 0.00 93 1017.7
20260505025908 40 295 0.0 0.0 0.00 0.00 0.00 93 1017.6
20260505025408 40 295 0.0 0.0 0.00 0.00 0.00 93 1017.7
20260505025124 40 295 0.0 0.0 0.00 0.00 0.00 93 1017.6
20260505024628 41 295 0.0 0.0 0.00 0.00 0.00 93 1017.6
20260505024141 41 295 0.0 0.0 0.00 0.00 0.00 93 1017.7
20260505023407 41 295 0.0 0.0 0.00 0.00 0.00 93 1017.7
20260505022907 41 295 0.0 0.0 0.00 0.00 0.00 93 1017.9
20260505022622 41 295 0.0 0.0 0.00 0.00 0.00 93 1017.8
20260505021906 41 295 0.0 0.0 0.00 0.00 0.00 93 1017.8
20260505021406 41 295 0.0 0.0 0.00 0.00 0.00 92 1017.9
20260505020905 41 295 0.0 0.0 0.00 0.00 0.00 93 1017.8
20260505020830 41 295 0.0 0.0 0.00 0.00 0.00 93 1017.8
20260505020826 41 295 0.0 0.0 0.00 0.00 0.00 92 1017.9
20260505015628 41 295 0.0 0.0 0.00 0.00 0.00 92 1017.9
20260505015123 41 295 0.0 0.0 0.00 0.00 0.00 92 1017.8
20260505014405 41 295 0.0 0.0 0.00 0.00 0.00 92 1017.9
20260505014347 42 295 0.0 0.0 0.00 0.00 0.00 92 1017.9
20260505013405 42 295 0.0 0.0 0.00 0.00 0.00 92 1018.0
20260505013123 42 295 0.0 0.0 0.00 0.00 0.00 92 1018.1
20260505012404 42 295 0.0 0.0 0.00 0.00 0.00 92 1018.1
20260505011905 42 295 0.0 0.0 0.00 0.00 0.00 92 1018.1
20260505011405 42 295 0.0 0.0 0.00 0.00 0.00 92 1018.2
20260505010904 42 295 0.0 0.0 0.00 0.00 0.00 92 1018.2
20260505010404 42 295 0.0 0.0 0.00 0.00 0.00 92 1018.2
20260505005904 42 295 0.0 0.0 0.00 0.00 0.00 92 1018.3
20260505005405 42 295 0.0 0.0 0.00 0.00 0.00 92 1018.2
20260505004904 42 295 0.0 0.0 0.00 0.00 0.00 92 1018.3
20260505004402 42 295 0.0 0.0 0.00 0.00 0.00 92 1018.4
20260505004132 42 295 0.0 0.0 0.00 0.00 0.00 92 1018.4
20260505003621 43 295 0.0 0.0 0.00 0.00 0.00 92 1018.4
20260505002903 43 295 0.0 1.0 0.00 0.00 0.00 91 1018.4
20260505002404 43 295 0.0 1.0 0.00 0.00 0.00 91 1018.4
20260505001903 43 295 0.0 0.0 0.00 0.00 0.00 91 1018.5
20260505001403 43 295 0.0 0.0 0.00 0.00 0.00 91 1018.5
20260505000903 43 295 0.0 0.0 0.00 0.00 0.00 91 1018.4
20260505000402 43 295 0.0 0.0 0.00 0.00 0.00 91 1018.6
20260504235903 43 295 0.0 0.0 0.00 0.00 0.00 91 1018.5
20260504235405 44 295 0.0 0.0 0.00 0.00 0.00 91 1018.6
20260504234902 44 295 0.0 0.0 0.00 0.00 0.00 91 1018.6
20260504234403 44 295 0.0 0.0 0.00 0.00 0.00 91 1018.6
20260504233902 44 295 0.0 0.0 0.00 0.00 0.00 90 1018.6
20260504233404 44 295 0.0 0.0 0.00 0.00 0.00 90 1018.6
20260504232903 44 295 0.0 0.0 0.00 0.00 0.00 90 1018.7
20260504232400 44 295 0.0 0.0 0.00 0.00 0.00 90 1018.6
20260504231902 44 295 0.0 0.0 0.00 0.00 0.00 90 1018.5
20260504231854 44 295 0.0 0.0 0.00 0.00 0.00 90 1018.5
20260504230903 44 295 0.0 0.0 0.00 0.00 0.00 90 1018.5
20260504230404 44 295 0.0 0.0 0.00 0.00 0.00 90 1018.6
20260504225903 45 295 0.0 0.0 0.00 0.00 0.00 90 1018.6
20260504225404 45 295 0.0 0.0 0.00 0.00 0.00 90 1018.6
20260504224904 45 295 0.0 0.0 0.00 0.00 0.00 89 1018.6
20260504224403 45 295 0.0 0.0 0.00 0.00 0.00 89 1018.7
20260504223903 45 295 0.0 0.0 0.00 0.00 0.00 89 1018.8
20260504223403 45 295 0.0 0.0 0.00 0.00 0.00 89 1018.8
20260504222900 45 295 0.0 2.0 0.00 0.00 0.00 89 1018.8
20260504222402 45 295 0.0 2.0 0.00 0.00 0.00 89 1018.9
20260504221900 46 298 0.0 2.0 0.00 0.00 0.00 88 1019.0
20260504221402 46 299 0.0 1.0 0.00 0.00 0.00 88 1018.8
20260504221123 46 299 0.0 1.0 0.00 0.00 0.00 88 1018.9
20260504220401 46 299 0.0 1.0 0.00 0.00 0.00 88 1018.9
20260504215900 46 299 0.0 0.0 0.00 0.00 0.00 87 1018.8
20260504215401 46 299 0.0 0.0 0.00 0.00 0.00 87 1018.9
20260504214859 47 299 0.0 0.0 0.00 0.00 0.00 86 1018.9
20260504214401 47 299 0.0 0.0 0.00 0.00 0.00 86 1018.9
20260504213859 47 299 0.0 0.0 0.00 0.00 0.00 86 1018.9
20260504213402 47 299 0.0 0.0 0.00 0.00 0.00 86 1018.9
20260504212859 47 299 0.0 0.0 0.00 0.00 0.00 85 1018.9
20260504212400 48 299 0.0 0.0 0.00 0.00 0.00 85 1018.8
20260504211858 48 299 0.0 0.0 0.00 0.00 0.00 85 1018.9
20260504211359 48 299 0.0 0.0 0.00 0.00 0.00 84 1018.9
20260504210859 49 299 0.0 0.0 0.00 0.00 0.00 83 1018.9
20260504210359 49 299 0.0 0.0 0.00 0.00 0.00 83 1019.0
20260504210117 49 299 0.0 1.0 0.00 0.00 0.00 83 1019.0
20260504205359 50 299 0.0 1.0 0.00 0.00 0.00 82 1018.9
20260504205116 50 299 0.0 1.0 0.00 0.00 0.00 82 1018.9
20260504204620 50 299 0.0 1.0 0.00 0.00 0.00 82 1018.9
20260504203857 50 299 0.0 1.0 0.00 0.00 0.00 81 1018.9
20260504203359 50 299 0.0 1.0 0.00 0.00 0.00 81 1018.9
20260504202857 51 299 0.0 1.0 0.00 0.00 0.00 81 1018.7
20260504202358 51 299 0.0 3.0 0.00 0.00 0.00 80 1018.7
20260504201857 51 299 1.0 3.0 0.00 0.00 0.00 80 1018.8
20260504201621 51 302 0.0 3.0 0.00 0.00 0.00 80 1018.7
20260504200856 51 303 1.0 3.0 0.00 0.00 0.00 80 1018.7
20260504200356 52 303 2.0 3.0 0.00 0.00 0.00 79 1018.8
20260504195856 52 298 1.0 3.0 0.00 0.00 0.00 79 1018.5
20260504195358 52 306 1.0 6.0 0.00 0.00 0.00 79 1018.5
20260504194856 53 265 2.0 6.0 0.00 0.00 0.00 78 1018.5
20260504194357 53 268 2.0 7.0 0.00 0.00 0.00 78 1018.5
20260504193856 53 282 3.0 7.0 0.00 0.00 0.00 77 1018.4
20260504193357 53 316 3.0 7.0 0.00 0.00 0.00 77 1018.4
20260504192856 53 289 4.0 6.0 0.00 0.00 0.00 77 1018.3
20260504192355 53 334 4.0 9.0 0.00 0.00 0.00 77 1018.3
20260504191856 54 336 4.0 9.0 0.00 0.00 0.00 78 1018.3
20260504191624 54 317 4.0 6.0 0.00 0.00 0.00 78 1018.3
20260504190855 54 336 3.0 6.0 0.00 0.00 0.00 78 1018.3
20260504190357 55 290 2.0 9.0 0.00 0.00 0.00 78 1018.2
20260504190126 55 290 2.0 9.0 0.00 0.00 0.00 78 1018.3
20260504185623 55 303 4.0 9.0 0.00 0.00 0.00 78 1018.3
20260504185121 56 245 5.0 9.0 0.00 0.00 0.00 77 1018.2
20260504184622 56 271 4.0 9.0 0.00 0.00 0.00 77 1018.2
20260504183854 56 264 4.0 9.0 0.00 0.00 0.00 77 1018.1